Weather History for Toronto, ON

Change the Weather History Date:

Saturday, November 12, 2011

  Actual Average Record
Temperature  
Mean Temperature 46 °F -  
Max Temperature 53 °F 41 °F 59 °F (2012)
Min Temperature 40 °F 31 °F 24 °F (2013)
Degree Days  
Heating Degree Days 18    
Moisture  
Dew Point 37 °F    
Average Humidity 68    
Maximum Humidity 87    
Minimum Humidity 42    
Precipitation  
Precipitation 0.00 in 0.09 in - ()
Sea Level Pressure  
Sea Level Pressure 29.85 in    
Wind  
Wind Speed 13 mph ()    
Max Wind Speed 23 mph    
Max Gust Speed 29 mph    
Visibility 9.1 miles    
Events      
Averages and records for this station are not official NWS values.
T = Trace of Precipitation, MM = Missing Value Source: Averaged Metar Reports

Daily Weather History Graph

Daily Weather History Graph

Search for Another Location

Airport:

Trip Planner

Search our weather history database for the weather conditions in past years. The results will help you decide how hot, cold, wet, or windy it might be!

Date:

Astronomy

Nov. 12, 2011 Rise Set
Actual Time 7:07 AM EST 4:55 PM EST
Civil Twilight 6:36 AM EST 5:26 PM EST
Nautical Twilight 6:02 AM EST 6:00 PM EST
Astronomical Twilight 5:28 AM EST 6:34 PM EST
Moon 6:06 PM EST (11/12) 8:51 AM EST (11/12)
Length of Visible Light 10h 49m
Length of Day
9h 48m
Full, 97% of the Moon is Illuminated
Nov 12
Full
Nov 18
Last Quarter
Nov 25
New
Dec 2
First Quarter
Dec 10
Full

Hourly Weather History & Observations

Time (EST) Temp. Windchill Dew Point Humidity Pressure Visibility Wind Dir Wind Speed Gust Speed Precip Events Conditions
12:00 AM 41.0 °F 33.9 °F 28.4 °F 61% 29.88 in 9.0 mi WSW 12.7 mph 18.4 mph N/A   Overcast
1:00 AM 41 °F - 29 °F 51% 29.88 in 10 mi WSW 19.6 mph - -   Overcast
1:00 AM 41.0 °F 32.5 °F 28.4 °F 61% 29.88 in 9.0 mi WSW 17.3 mph 27.6 mph N/A   Overcast
2:00 AM 41.0 °F 33.5 °F 28.4 °F 61% 29.87 in 9.0 mi WSW 13.8 mph 20.7 mph N/A   Overcast
3:00 AM 41.0 °F 33.1 °F 30.2 °F 65% 29.84 in 9.0 mi SW 15.0 mph - N/A   Scattered Clouds
4:00 AM 42.8 °F 35.8 °F 35.6 °F 76% 29.81 in 9.0 mi SSW 13.8 mph - N/A   Overcast
5:00 AM 42.8 °F 35.1 °F 35.6 °F 76% 29.81 in 9.0 mi SSW 16.1 mph - N/A   Overcast
6:00 AM 44.6 °F 37.2 °F 37.4 °F 76% 29.81 in 9.0 mi SW 17.3 mph 26.5 mph N/A   Overcast
7:00 AM 45 °F - 35 °F 59% 29.81 in 10 mi SW 23.0 mph - -   Overcast
7:00 AM 44.6 °F 35.9 °F 35.6 °F 71% 29.80 in 9.0 mi SW 23.0 mph 28.8 mph N/A   Overcast
8:00 AM 44.6 °F 36.4 °F 37.4 °F 76% 29.81 in 9.0 mi SW 20.7 mph 26.5 mph N/A   Partly Cloudy
9:00 AM 46.4 °F 39.0 °F 37.4 °F 71% 29.81 in 9.0 mi SW 19.6 mph - N/A   Clear
11:00 AM 50.0 °F - 35.6 °F 58% 29.84 in 9.0 mi WSW 15.0 mph - N/A   Clear
12:00 PM 51.8 °F - 35.6 °F 54% 29.84 in 9.0 mi WSW 18.4 mph 24.2 mph N/A   Clear
1:00 PM 54 °F - 37 °F 42% 29.84 in 10 mi WSW 18.4 mph - -  
1:00 PM 53.6 °F - 37.4 °F 54% 29.84 in 9.0 mi SW 18.4 mph - N/A   Clear
2:00 PM 53.6 °F - 41.0 °F 62% 29.84 in 9.0 mi SW 15.0 mph - N/A   Scattered Clouds
3:00 PM 51.8 °F - 41.0 °F 67% 29.85 in 9.0 mi SSW 15.0 mph - N/A   Clear
4:00 PM 50.0 °F - 41.0 °F 71% 29.86 in 9.0 mi SSW 12.7 mph - N/A   Clear
5:00 PM 50.0 °F - 42.8 °F 76% 29.88 in 9.0 mi South 10.4 mph - N/A   Clear
6:00 PM 48.2 °F - 41.0 °F 76% 29.89 in 9.0 mi SSE 5.8 mph - N/A   Clear
7:00 PM 46 °F - 40 °F 74% 29.89 in 10 mi SW 5.8 mph - -  
7:00 PM 46.4 °F 43.5 °F 41.0 °F 81% 29.89 in 9.0 mi SW 5.8 mph - N/A   Clear
8:00 PM 46.4 °F 44.3 °F 42.8 °F 87% 29.89 in 9.0 mi South 4.6 mph - N/A   Clear
9:00 PM 46.4 °F - 41.0 °F 81% 29.88 in 9.0 mi Variable 2.3 mph - N/A   Clear
10:00 PM 46.4 °F 43.5 °F 41.0 °F 81% 29.88 in 9.0 mi South 5.8 mph - N/A   Clear
11:00 PM 46.4 °F 45.2 °F 41.0 °F 81% 29.88 in 9.0 mi South 3.5 mph - N/A   Clear